Weather History for West Plains, MO

Change the Weather History Date:

Friday, October 26, 2012

  Actual Average Record
Temperature  
Mean Temperature 45 °F 54 °F  
Max Temperature 52 °F 66 °F 84 °F (1950)
Min Temperature 37 °F 43 °F 25 °F (1972)
Degree Days  
Heating Degree Days 20 11  
Month to date heating degree days 226 203  
Since 1 July heating degree days 270 245  
Cooling Degree Days 0 0  
Month to date cooling degree days 16 20  
Year to date cooling degree days 1739 1348  
Moisture  
Dew Point 30 °F    
Average Humidity 61    
Maximum Humidity 76    
Minimum Humidity 41    
Precipitation  
Precipitation 0.00 in 0.11 in 1.96 in (1970)
Month to date precipitation 3.14 3.29  
Year to date precipitation 28.26 37.45  
Sea Level Pressure  
Sea Level Pressure 30.25 in    
Wind  
Wind Speed 12 mph (North)    
Max Wind Speed 17 mph    
Max Gust Speed 26 mph    
Visibility 10 miles    
Events      
T = Trace of Precipitation, MM = Missing Value Source: NWS Daily Summary

Daily Weather History Graph

Daily Weather History Graph

Search for Another Location

Airport:

Trip Planner

Search our weather history database for the weather conditions in past years. The results will help you decide how hot, cold, wet, or windy it might be!

Date:

Astronomy

Oct. 26, 2012 Rise Set
Actual Time 7:26 AM CDT 6:16 PM CDT
Civil Twilight 6:59 AM CDT 6:42 PM CDT
Nautical Twilight 6:29 AM CDT 7:13 PM CDT
Astronomical Twilight 5:58 AM CDT 7:43 PM CDT
Moon 4:29 PM CDT 4:26 AM CDT
Length of Visible Light 11h 43m
Length of Day
10h 50m
Waxing Gibbous, 91% of the Moon is Illuminated
Oct 26
Waxing Gibbous
Oct 29
Full
Nov 6
Last Quarter
Nov 13
New
Nov 20
First Quarter

Hourly Weather History & Observations

Time (CDT) Temp. Windchill Dew Point Humidity Pressure Visibility Wind Dir Wind Speed Gust Speed Precip Events Conditions
1:53 AM 44.1 °F 37.4 °F 37.0 °F 76% 30.14 in 10.0 mi North 13.8 mph 20.7 mph N/A   Overcast
2:53 AM 44.1 °F 38.6 °F 37.0 °F 76% 30.17 in 10.0 mi North 10.4 mph 18.4 mph N/A   Overcast
3:53 AM 43.0 °F 36.8 °F 36.0 °F 76% 30.17 in 10.0 mi North 11.5 mph 23.0 mph N/A   Overcast
4:53 AM 42.1 °F 35.7 °F 35.1 °F 76% 30.19 in 10.0 mi NNE 11.5 mph 19.6 mph N/A   Overcast
5:53 AM 41.0 °F 34.3 °F 34.0 °F 76% 30.21 in 10.0 mi North 11.5 mph 18.4 mph N/A   Overcast
6:53 AM 39.9 °F 32.9 °F 32.0 °F 73% 30.24 in 10.0 mi North 11.5 mph - N/A   Mostly Cloudy
7:53 AM 37.0 °F 27.7 °F 28.9 °F 73% 30.26 in 10.0 mi NNE 16.1 mph 26.5 mph N/A   Scattered Clouds
8:53 AM 37.9 °F 30.0 °F 30.0 °F 73% 30.29 in 10.0 mi North 12.7 mph 25.3 mph N/A   Overcast
9:53 AM 41.0 °F 32.5 °F 30.9 °F 67% 30.30 in 10.0 mi NNE 17.3 mph 23.0 mph N/A   Mostly Cloudy
10:03 AM 42.8 °F 35.1 °F 30.2 °F 61% 30.28 in 10.0 mi NNE 16.1 mph 24.2 mph N/A   Scattered Clouds
10:53 AM 44.1 °F 38.1 °F 30.9 °F 60% 30.28 in 10.0 mi North 11.5 mph 24.2 mph N/A   Clear
11:53 AM 48.0 °F - 30.0 °F 50% 30.30 in 10.0 mi NNE 15.0 mph 20.7 mph N/A   Clear
12:53 PM 48.9 °F - 30.0 °F 48% 30.29 in 10.0 mi North 16.1 mph - N/A   Clear
1:53 PM 50.0 °F - 28.9 °F 44% 30.27 in 10.0 mi NNE 15.0 mph 23.0 mph N/A   Clear
2:53 PM 51.1 °F - 28.0 °F 41% 30.25 in 10.0 mi North 15.0 mph 21.9 mph N/A   Clear
3:53 PM 51.1 °F - 28.0 °F 41% 30.25 in 10.0 mi North 11.5 mph - N/A   Clear
4:53 PM 50.0 °F - 27.0 °F 41% 30.25 in 10.0 mi North 12.7 mph 18.4 mph N/A   Clear
5:53 PM 46.9 °F - 27.0 °F 46% 30.25 in 10.0 mi North 11.5 mph 18.4 mph N/A   Clear
6:53 PM 44.1 °F 38.6 °F 27.0 °F 51% 30.27 in 10.0 mi North 10.4 mph - N/A   Clear
7:53 PM 42.1 °F 38.4 °F 28.0 °F 58% 30.29 in 10.0 mi North 5.8 mph - N/A   Clear
8:53 PM 41.0 °F 35.2 °F 28.0 °F 60% 30.30 in 10.0 mi North 9.2 mph - N/A   Clear
10:53 PM 39.0 °F 31.0 °F 27.0 °F 62% 30.31 in 10.0 mi North 13.8 mph - N/A   Clear
11:53 PM 37.9 °F 30.9 °F 28.0 °F 68% 30.30 in 10.0 mi North 10.4 mph - N/A   Clear